Regional Weather Roundup
Issued by NWS Cleveland, OH

Home | Current Version | Previous Version | Text Only | Print | Product List | Glossary On
Versions: 1 2 3 4 5 6 7 8 9 10 11 12 13 14 15 16 17 18 19 20 21 22 23 24 25 26 27 28 29 30 31 32 33 34 35 36 37 38 39 40 41 42 43 44 45 46 47 48 49 50
000
ASUS41 KCLE 251212
RWRCLE
OHIO REGIONAL WEATHER ROUNDUP
NATIONAL WEATHER SERVICE WILMINGTON, OH
700 AM EST SUN FEB 25 2018

NOTE: "FAIR" INDICATES FEW OR NO CLOUDS BELOW 12,000 FEET WITH NO
SIGNIFICANT WEATHER AND/OR OBSTRUCTIONS TO VISIBILITY.

OHZ001>008-015>018-024>027-034-035-043-044-251300-
   NORTHWEST OHIO

CITY           SKY/WX    TMP DP  RH WIND       PRES   REMARKS
DEFIANCE       FAIR      39  31  72 W17G30    29.76R
FINDLAY        CLOUDY    46  36  68 W30G43    29.75R
TOLEDO EXPRESS CLOUDY    45  39  79 W29G43    29.69R
TOLEDO EXEC    MOCLDY    47  37  68 SW36G49   29.70R
LIMA           CLOUDY    44  38  79 W28G39    29.79R
$$

OHZ009>014-019>023-028>033-038-089-251300-
   NORTHEAST OHIO

CITY           SKY/WX    TMP DP  RH WIND       PRES   REMARKS
CLE-HOPKINS    LGT RAIN  57  52  83 W37G54    29.68R
CLE-LAKEFRONT  CLOUDY    59  52  77 SW22G40   29.61R
CUY CO. ARPT   CLOUDY    61  55  82 SW18G25   29.62
LORAIN-ELYRIA  MOCLDY    53  42  66 W31G46    29.67R
ASHTABULA      CLOUDY    57  54  89 S15G24    29.63R
AKRON-CANTON   CLOUDY    59  51  75 SW18G29   29.68R
WOOSTER        MOCLDY    58  52  80 SW22G33   29.69R
MANSFIELD      CLOUDY    50  46  86 W21G37    29.73R
YOUNGSTOWN     CLOUDY    58  53  84 SW14G23   29.66R
$$

OHZ042-051>053-060>062-070>072-077>081-251300-
  SOUTHWEST OHIO

CITY           SKY/WX    TMP DP  RH WIND       PRES   REMARKS
CINC-COVINGTON FAIR      50  44  80 W24G33    29.87R
CINC-LUNKEN    CLOUDY    54  47  77 W12G22    29.88R
HAMILTON       MOCLDY    50  39  66 W14G22    29.89R
DAYTON         CLOUDY    45  40  82 W20       29.86R
WRIGHT-PAT AFB CLOUDY    49  41  75 W18G25    29.84R
DAYTON GENERAL CLOUDY    49  40  71 W20G30    29.85R
WILMINGTON     FAIR      51  47  86 W24G30    29.84R
$$

OHZ036-037-039>041-045>050-054>059-063>069-073>076-082>088-251300-
  CENTRAL AND SOUTHEAST OHIO

CITY           SKY/WX    TMP DP  RH WIND       PRES   REMARKS
COLUMBUS       DRIZZLE   55  50  83 W18G38    29.78R
OSU AIRPORT    LGT RAIN  52  47  83 W23G32    29.78R
BOLTON FIELD   MOCLDY    53  47  81 W15G26    29.79R
RICKENBACK AFB CLOUDY    56  53  88 W22G33    29.79R
NEWARK         CLOUDY    59  53  80 SW13G22   29.75R
MARION         NOT AVBL
LANCASTER      LGT RAIN  58  54  86 SW13G25   29.78R
ZANESVILLE     MOCLDY    59  53  80 S14G22    29.76R
NEW PHILLY     MOCLDY    60  52  74 SW12G24   29.73R
$$




USA.gov is the U.S. government's official web portal to all federal, state and local government web resources and services.